Reus, Spain

6:26 PM CET en Diciembre 18, 2018 (GMT +0100)
Reus Air Base

Tiempo Historia de LERS - Diciembre, 2018

Change the Weather History Date:

Jueves, Diciembre 6, 2018

  Actual Average Record
Temperature  
Temperatura media 54 ° F -  
Temperatura máxima 64 ° F 56 ° F 67 ° F (2016)
Temperatura mínima 44 ° F 40 ° F 31 ° F (2017)
Degree Days  
Grados día de calefacción 11    
Growing Degree Days 4 (Base 50)    
Moisture  
Punto de rocío 47 ° F    
Average Humidity 78    
Maximum Humidity 97    
Minimum Humidity 49    
Precipitación  
Precipitación 0.00 pul - - ()
Presión al nivel del mar  
Presión al nivel del mar 30.28 pul    
Viento  
Velocidad del viento 5 mph ()    
Velocidad máxima del viento 13 mph    
Max Gust Speed -    
Visibilidad 8.6 Millas    
Eventos      
Averages and records for this station are not official NWS values.
T = Trace of Precipitation, MM = Missing Value Source: Averaged Metar Reports

Daily Weather History Graph

Daily Weather History Graph

Search for Another Location

Airport or City:

Astronomía

Dec. 06, 2018 Salida Puesta
Hora real 8:05 AM CET 5:26 PM CET
Crepúsculo civil 7:35 AM CET 5:57 PM CET
Crepúsculo náutico 7:00 AM CET 6:31 PM CET
Crepúsculo astronómico 6:27 AM CET 7:05 PM CET
Luna 6:57 AM CET (12/6) 5:12 PM CET (12/6)
Horas de luz 10h 22m
Horas de luz
9h 20m
Creciente menguante, 1% of the Moon is Illuminated
Dic 6
Creciente menguante
Dic 7
Nueva
Dic 15
Cuarto creciente
Dic 22
Luna llena
Dic 29
Cuarto menguante

Hourly Weather History & Observations

Hora (CET) Temp. Vientos helados Punto de rocío Humedad Presión Visibilidad Wind Dir Velocidad del viento Velocidad de ráfagas Precip Eventos Condiciones
12:00 AM 49 ° F - 48 ° F 93% 30.24 pul 6 mi NE 8.1 mph - -  
12:00 AM 48.2 ° F - 46.4 ° F 93% 30.21 pul 3.1 mi NNE 5.8 mph - N/A   Neblina
12:30 AM 50.0 ° F - 46.4 ° F 87% 30.21 pul 6.2 mi Norte 6.9 mph - N/A   Desconocido
1:00 AM 51 ° F - 47 ° F 83% 30.22 pul 19 mi NNO 8.1 mph - -  
1:00 AM 50.0 ° F - 46.4 ° F 87% 30.21 pul 6.2 mi NNO 3.5 mph - N/A   Desconocido
1:30 AM 50.0 ° F - 46.4 ° F 87% 30.21 pul 6.2 mi NNO 5.8 mph - N/A   Desconocido
2:00 AM 49 ° F - 47 ° F 89% 30.24 pul 19 mi NNO 5.8 mph - -  
2:00 AM 50.0 ° F - 44.6 ° F 82% 30.21 pul 6.2 mi NNE 5.8 mph - N/A   Desconocido
2:30 AM 55.4 ° F - 46.4 ° F 72% 30.21 pul 6.2 mi Norte 10.4 mph - N/A   Desconocido
3:00 AM 52 ° F - 47 ° F 76% 30.25 pul 19 mi Norte 6.9 mph - -  
3:00 AM 53.6 ° F - 46.4 ° F 77% 30.24 pul 6.2 mi Norte 10.4 mph - N/A   Desconocido
3:30 AM 51.8 ° F - 44.6 ° F 76% 30.24 pul 6.2 mi NNE 11.5 mph - N/A   Desconocido
4:00 AM 50 ° F - 45 ° F 76% 30.26 pul 19 mi Norte 4.6 mph - -  
4:00 AM 50.0 ° F - 44.6 ° F 82% 30.24 pul 6.2 mi NNE 6.9 mph - N/A   Desconocido
4:30 AM 48.2 ° F - 44.6 ° F 87% 30.24 pul 6.2 mi Sin viento Sin viento - N/A   Desconocido
5:00 AM 48 ° F - 45 ° F 84% 30.28 pul 19 mi NNE 8.1 mph - -  
5:00 AM 48.2 ° F - 44.6 ° F 87% 30.27 pul 6.2 mi NNE 6.9 mph - N/A   Desconocido
5:30 AM 46.4 ° F 43.5 ° F 44.6 ° F 93% 30.27 pul 6.2 mi NNE 5.8 mph - N/A   Desconocido
6:00 AM 47 ° F - 44 ° F 86% 30.28 pul 19 mi NNE 5.8 mph - -  
6:00 AM 46.4 ° F 43.5 ° F 42.8 ° F 87% 30.27 pul 6.2 mi NNE 5.8 mph - N/A   Desconocido
6:30 AM 44.6 ° F 42.2 ° F 42.8 ° F 93% 30.27 pul 6.2 mi NNE 4.6 mph - N/A   Desconocido
7:00 AM 44 ° F - 43 ° F 97% 30.29 pul 12 mi NNE 2.3 mph - -   Nubes dispersas
7:00 AM 44.6 ° F 42.2 ° F 42.8 ° F 93% 30.27 pul 6.2 mi NNE 4.6 mph - N/A   Parcialmente nublado
7:30 AM 44.6 ° F 43.1 ° F 42.8 ° F 93% 30.27 pul 6.2 mi NNE 3.5 mph - N/A   Parcialmente nublado
8:00 AM 46.4 ° F 43.5 ° F 44.6 ° F 93% 30.30 pul 6.2 mi Norte 5.8 mph - N/A   Parcialmente nublado
8:30 AM 48.2 ° F - 44.6 ° F 87% 30.30 pul 6.2 mi Norte 4.6 mph - N/A   Parcialmente nublado
9:00 AM 49 ° F - 47 ° F 90% 30.32 pul 11 mi Norte 5.8 mph - -  
9:00 AM 50.0 ° F - 46.4 ° F 87% 30.30 pul 6.2 mi Norte 6.9 mph - N/A   Parcialmente nublado
9:30 AM 51.8 ° F - 48.2 ° F 88% 30.30 pul 6.2 mi Variable 2.3 mph - N/A   Parcialmente nublado
10:00 AM 54 ° F - 49 ° F 79% 30.32 pul 16 mi ESE 2.3 mph - -   Nubes dispersas
10:00 AM 55.4 ° F - 48.2 ° F 77% 30.30 pul 6.2 mi Variable 2.3 mph - N/A   Parcialmente nublado
10:30 AM 55.4 ° F - 48.2 ° F 77% 30.30 pul 6.2 mi ENE 3.5 mph - N/A   Parcialmente nublado
11:00 AM 58 ° F - 50 ° F 66% 30.33 pul 17 mi ENE 4.6 mph - -  
11:00 AM 57.2 ° F - 48.2 ° F 72% 30.33 pul 6.2 mi NE 3.5 mph - N/A   Parcialmente nublado
11:30 AM 59.0 ° F - 50.0 ° F 72% 30.33 pul 6.2 mi Variable 2.3 mph - N/A   Parcialmente nublado
12:00 PM 60 ° F - 49 ° F 58% 30.32 pul 12 mi ONO 1.2 mph - -  
12:00 PM 62.6 ° F - 50.0 ° F 63% 30.30 pul 6.2 mi Sin viento Sin viento - N/A   Parcialmente nublado
12:30 PM 60.8 ° F - 48.2 ° F 63% 30.30 pul 6.2 mi Sur 1.2 mph - N/A   Parcialmente nublado
1:00 PM 63 ° F - 51 ° F 55% 30.29 pul 16 mi Sur 2.3 mph - -   Nubes dispersas
1:00 PM 62.6 ° F - 50.0 ° F 63% 30.27 pul 6.2 mi Variable 3.5 mph - N/A   Parcialmente nublado
1:30 PM 62.6 ° F - 50.0 ° F 63% 30.27 pul 6.2 mi Variable 1.2 mph - N/A   Parcialmente nublado
2:00 PM 63 ° F - 51 ° F 56% 30.28 pul 8 mi ENE 4.6 mph - -  
2:00 PM 62.6 ° F - 50.0 ° F 63% 30.27 pul 6.2 mi Sin viento Sin viento - N/A   Parcialmente nublado
2:30 PM 62.6 ° F - 50.0 ° F 63% 30.27 pul 6.2 mi Variable 2.3 mph - N/A   Parcialmente nublado
3:00 PM 65 ° F - 51 ° F 49% 30.27 pul 12 mi ONO 3.5 mph - -  
3:00 PM 64.4 ° F - 50.0 ° F 59% 30.27 pul 6.2 mi Variable 2.3 mph - N/A   Parcialmente nublado
3:30 PM 64.4 ° F - 50.0 ° F 59% 30.24 pul 6.2 mi Variable 2.3 mph - N/A   Parcialmente nublado
4:00 PM 64 ° F - 51 ° F 52% 30.27 pul 19 mi ONO 12.7 mph - -   Nubes dispersas
4:00 PM 64.4 ° F - 50.0 ° F 59% 30.24 pul 6.2 mi Norte 3.5 mph - N/A   Parcialmente nublado
4:30 PM 62.6 ° F - 50.0 ° F 63% 30.27 pul 6.2 mi NE 3.5 mph - N/A   Parcialmente nublado
5:00 PM 60.8 ° F - 50.0 ° F 68% 30.27 pul 6.2 mi Variable 3.5 mph - N/A   Parcialmente nublado
5:30 PM 59.0 ° F - 50.0 ° F 72% 30.27 pul 6.2 mi Sin viento Sin viento - N/A   Parcialmente nublado
6:00 PM 55.4 ° F - 50.0 ° F 82% 30.27 pul 6.2 mi Sin viento Sin viento - N/A   Parcialmente nublado
6:30 PM 57.2 ° F - 50.0 ° F 77% 30.27 pul 6.2 mi Oeste 6.9 mph - N/A   Parcialmente nublado
7:00 PM 54 ° F - 49 ° F 79% 30.29 pul 12 mi NNE 4.6 mph - -   Nubes dispersas
7:00 PM 53.6 ° F - 48.2 ° F 82% 30.27 pul 6.2 mi Variable 2.3 mph - N/A   Parcialmente nublado
7:30 PM 51.8 ° F - 48.2 ° F 88% 30.30 pul 6.2 mi NNE 6.9 mph - N/A   Parcialmente nublado
8:00 PM 52 ° F - 49 ° F 84% 30.31 pul 9 mi Norte 9.2 mph - -  
8:00 PM 51.8 ° F - 48.2 ° F 88% 30.30 pul 6.2 mi NNE 6.9 mph - N/A   Parcialmente nublado
8:30 PM 51.8 ° F - 46.4 ° F 82% 30.30 pul - NNE 3.5 mph - N/A   Despejado
9:00 PM 52 ° F - 48 ° F 80% 30.32 pul 8 mi Norte 3.5 mph - -  
9:00 PM 50.0 ° F - 46.4 ° F 87% 30.30 pul - Variable 2.3 mph - N/A   Despejado
9:30 PM 50.0 ° F - 46.4 ° F 87% 30.30 pul - NO 5.8 mph - N/A   Despejado
10:00 PM 49 ° F - 46 ° F 87% 30.34 pul 7 mi Oeste 3.5 mph - -  
10:30 PM 48.2 ° F - 46.4 ° F 93% 30.33 pul 6.2 mi Oeste 1.2 mph - N/A   Desconocido
11:00 PM 49 ° F - 46 ° F 86% 30.34 pul 9 mi Oeste 5.8 mph - -  
11:00 PM 48.2 ° F - 44.6 ° F 87% 30.33 pul 6.2 mi Oeste 4.6 mph - N/A   Desconocido
11:30 PM 44.6 ° F 43.1 ° F 42.8 ° F 93% 30.33 pul 6.2 mi NNE 3.5 mph - N/A   Desconocido